{"data":{"norad_id":58524,"epoch":"2026-05-25T01:26:52.842048Z","epoch_age_seconds":69748,"freshness":"FRESH","line1":"1 58524U 23191S   26145.06033382 -.00000126  00000+0  49556-5 0  9996","line2":"2 58524  43.0033  31.9267 0001046 267.7621  92.3111 15.27578417137150","mean_motion":15.27578417,"eccentricity":0.0001046,"inclination_deg":43.0033,"raan_deg":31.9267,"arg_perigee_deg":267.7621,"mean_anomaly_deg":92.3111,"bstar":4.9556e-6,"rev_number":13715,"period_min":94.266846400462,"perigee_km":482.33615555377,"apogee_km":483.77151667669,"semimajor_km":6861.1908361152,"source":"CELESTRAK","updated_at":"2026-05-25T13:38:18.658366Z"}}